Wind_Speed
25 22 17 12 10 9 12 14 18 24 28 32 35 35 33 26 24 22 16 16 20 19 16 15 17 19 16 15 13 11 7 7 5 4 9 8 5 6 4 9 13 13 20
28 29 25 23 21 20 15 15 15 18 20 22 27 30 28 25 25 25 22 20 22 17 16 18 17 19 19 19 18 14 10 9 8 10 13 8 6 9 4 7 19 17 13
29 32 31 30 24 23 21 22 22 19 15 18 21 25 28 26 28 29 31 27 21 16 11 12 11 18 19 22 21 18 14 9 12 14 14 14 10 11 8 3 5 7 14
31 30 36 32 25 22 22 21 14 10 12 14 15 16 18 22 22 26 27 25 21 16 16 11 11 14 16 22 22 20 18 14 15 17 19 17 16 13 13 12 7 12 14
36 36 34 36 33 32 27 23 17 12 10 19 17 14 17 18 20 26 28 24 19 17 22 21 21 13 18 22 24 25 23 21 20 19 22 23 21 19 20 22 18 20 24
44 41 39 38 42 40 37 27 17 16 13 21 20 15 17 19 18 21 23 19 17 19 20 23 24 24 22 20 26 29 28 25 27 24 25 27 28 26 25 27 28 24 24
50 48 45 43 42 45 43 40 24 22 22 20 21 20 12 19 19 20 20 18 14 14 16 19 23 24 25 24 24 29 30 32 31 29 27 29 31 34 32 31 34 35 36
51 49 52 54 45 48 49 46 37 32 43 40 30 27 18 18 20 21 20 17 13 14 18 23 23 24 24 26 29 29 31 33 33 33 32 32 33 37 39 39 39 40 41
46 47 51 60 58 55 55 53 45 43 36 28 36 32 23 21 24 27 26 22 22 26 27 27 28 27 24 25 27 28 29 30 31 32 33 32 35 35 38 43 45 45 46
47 47 51 59 64 63 62 58 51 47 44 37 35 35 29 24 22 22 24 24 24 28 31 32 29 30 29 28 28 28 30 30 31 29 29 31 33 36 38 41 44 46 48
49 46 47 54 64 67 67 60 54 51 52 43 43 35 32 35 33 34 36 35 34 34 33 35 35 34 36 34 31 29 30 32 34 36 36 37 39 41 44 45 45 46 48
50 49 48 50 55 65 68 63 58 53 56 51 50 40 32 28 34 35 38 34 30 29 35 42 38 37 37 35 34 34 35 35 36 35 36 42 43 44 46 49 51 53 54
52 53 50 51 53 57 66 67 64 61 59 56 54 44 40 42 46 42 41 41 35 37 43 40 40 41 36 37 37 35 37 37 39 42 45 42 45 47 50 54 57 60 63
50 51 54 54 54 55 59 67 70 68 64 60 60 56 53 53 53 44 43 41 39 47 47 45 42 43 40 40 38 39 40 41 41 43 46 49 52 55 57 60 63 66 67
48 51 51 53 56 57 57 62 69 71 69 64 64 63 59 56 56 53 44 48 50 51 49 46 41 46 47 44 43 45 47 48 51 52 55 58 56 59 63 65 67 71 73
46 48 49 50 53 56 58 60 66 69 72 68 62 65 60 57 53 58 47 42 45 50 53 50 46 50 51 50 51 52 49 51 53 55 55 57 62 66 68 72 77 82 83
45 47 48 50 52 52 54 57 62 69 72 71 66 67 63 61 54 56 52 48 44 47 51 55 53 53 56 54 54 54 55 55 54 56 61 66 71 73 82 83 80 74 74
29 31 39 46 50 51 52 55 58 65 69 72 68 66 68 63 60 61 54 53 51 54 55 54 54 57 59 58 56 53 54 56 61 66 71 76 80 80 73 74 74 85 89
21 22 25 29 34 38 39 45 51 58 64 67 69 68 67 70 65 62 62 66 66 65 63 60 60 56 56 56 60 65 68 68 71 75 77 68 68 73 78 86 89 93 98
6 7 11 14 19 23 24 32 41 49 56 60 65 69 67 69 72 70 71 71 74 70 66 68 65 65 67 68 68 70 75 75 70 63 66 70 74 79 86 89 94 99 100
4 4 7 7 9 13 17 24 30 37 45 54 58 63 69 68 73 76 76 78 80 80 76 76 68 70 72 70 69 73 71 70 74 75 78 79 82 85 87 88 91 95 97
6 2 2 2 5 11 15 18 22 27 32 37 47 51 56 64 68 71 72 74 78 81 81 77 75 69 72 74 74 75 77 76 76 79 81 82 83 85 90 90 89 82 80
15 15 14 10 6 7 9 12 15 20 25 31 36 40 45 50 60 65 63 62 68 67 68 67 69 71 72 72 73 72 71 73 77 80 82 81 82 82 82 77 78 78 80
21 26 19 18 15 14 14 16 18 21 26 30 33 38 42 44 48 53 56 59 60 61 64 67 70 72 72 71 72 73 75 77 79 79 77 73 73 71 70 72 75 78 82
18 23 25 26 26 24 25 25 25 26 28 29 32 37 40 45 48 51 53 56 60 62 64 65 68 71 71 72 74 71 69 68 66 65 65 64 66 69 71 74 77 81 82
33 34 32 32 29 31 32 30 31 32 34 36 37 41 40 44 48 50 50 51 53 56 58 60 62 62 61 61 61 60 58 58 59 61 63 64 67 71 74 77 79 79 74
Wind_Direction
239 231 241 249 216 245 282 272 259 257 259 261 261 260 261 260 264 274 276 291 305 296 283 273 257 236 223 230 243 261 285 264 248 198 155 169 156 122 188 53 21 359 14
236 230 250 254 253 257 265 266 282 303 275 263 260 256 251 251 245 253 266 290 292 282 284 266 256 231 229 228 240 249 267 258 247 233 212 220 203 230 222 25 349 355 321
243 241 246 254 256 265 262 273 284 303 293 280 269 261 248 242 243 248 258 276 285 277 265 266 257 233 236 234 246 247 259 264 256 244 228 229 248 249 240 204 260 321 282
248 249 246 244 250 255 262 269 272 289 3 346 293 263 250 250 245 243 254 266 268 275 245 249 256 233 237 235 244 245 255 266 254 236 241 234 251 257 246 205 200 253 245
242 248 246 244 239 249 249 247 252 255 320 341 347 306 256 252 240 244 250 258 257 268 250 250 259 252 242 242 252 251 253 252 257 249 246 248 250 252 250 234 249 247 259
246 244 248 245 243 245 241 228 244 278 296 301 314 328 298 267 251 253 246 250 252 253 263 259 264 270 270 267 252 252 251 253 255 259 255 254 253 251 254 262 260 266 272
256 247 242 245 237 238 238 231 230 245 262 260 273 290 295 286 261 249 246 244 244 258 270 270 267 269 274 277 274 261 262 256 261 261 266 263 260 257 257 261 262 262 273
252 246 238 238 237 233 237 234 227 240 242 253 247 265 268 279 263 245 243 242 250 278 273 266 266 269 274 277 275 273 267 261 261 263 265 269 264 262 265 268 273 277 278
248 243 237 236 236 237 237 236 232 231 231 246 239 236 231 250 254 252 248 248 258 268 266 273 273 275 276 277 278 273 268 266 265 267 266 264 266 269 266 266 270 276 280
244 243 235 234 234 234 237 238 234 228 234 240 233 229 224 229 254 258 244 239 245 255 265 267 270 275 283 283 281 279 274 272 271 272 270 269 274 276 275 275 278 281 281
242 241 238 232 233 232 235 236 236 227 225 231 232 230 235 233 240 240 251 247 248 252 253 264 276 277 276 282 280 280 278 279 279 277 276 277 278 282 282 282 283 287 291
240 241 240 237 236 235 232 231 230 229 220 223 228 230 233 248 236 240 241 244 254 262 267 269 270 278 276 271 278 282 282 280 280 279 284 284 284 286 286 286 287 289 294
244 240 242 241 238 237 237 230 226 228 226 220 227 221 232 240 230 234 247 247 254 250 256 270 270 272 268 271 278 278 277 279 281 282 284 285 287 286 288 289 289 290 292
245 246 244 243 241 239 238 235 229 228 229 224 223 225 223 229 234 235 238 247 249 260 261 268 264 265 272 278 275 274 276 273 278 280 282 282 282 283 286 287 290 295 297
246 244 242 241 240 237 237 236 231 227 228 225 224 222 227 234 233 233 235 242 253 262 263 263 260 264 269 271 273 275 278 279 285 288 283 284 287 289 291 293 294 295 294
252 248 245 242 240 240 238 234 233 226 225 226 228 222 224 232 231 232 238 241 241 250 258 261 260 260 266 273 274 277 279 284 286 288 291 291 289 292 291 292 289 295 298
253 252 247 241 239 242 240 235 230 225 223 224 225 227 227 227 235 236 235 238 246 252 254 257 261 265 270 269 276 277 280 284 287 285 286 285 287 289 293 297 295 292 290
247 245 238 237 239 241 238 231 228 224 222 223 224 226 226 227 233 237 232 240 248 255 258 262 265 265 269 273 278 279 279 278 280 284 285 285 288 294 291 285 281 290 288
247 242 243 244 242 239 236 230 225 220 221 223 224 226 227 228 232 235 235 236 249 255 261 264 265 267 267 267 272 277 280 283 284 286 292 291 292 281 278 285 287 290 291
227 240 238 235 233 231 224 219 222 217 219 223 225 227 230 231 232 233 235 237 244 256 258 262 265 268 269 274 278 279 279 284 288 282 279 280 282 283 285 286 287 290 294
73 40 328 242 221 218 215 221 221 220 223 225 228 230 231 234 235 237 240 243 247 251 258 263 266 269 273 276 276 277 280 283 287 285 287 286 284 283 287 290 292 295 299
138 243 166 83 195 213 212 221 227 229 231 234 233 235 238 239 240 244 247 250 252 256 262 266 267 267 265 269 273 274 278 281 279 280 281 285 288 292 294 297 302 300 299
220 231 249 264 231 197 198 219 232 236 240 241 240 239 241 246 248 248 251 253 258 260 262 262 264 264 267 270 273 276 277 279 281 287 291 294 296 297 298 297 298 298 301
242 239 238 260 264 248 247 255 257 259 253 248 246 246 247 248 250 252 254 257 259 261 263 267 271 273 274 274 276 279 281 283 287 291 293 293 294 294 295 296 298 300 301
243 249 253 262 268 271 269 272 266 266 258 258 259 261 263 262 262 264 265 266 266 267 268 269 271 274 278 280 285 289 289 287 289 291 291 291 293 295 296 297 298 301 304
254 251 255 263 267 268 275 268 263 260 262 265 271 277 269 265 266 266 268 271 273 275 276 278 280 281 282 283 283 286 287 287 288 289 291 293 294 296 298 299 301 303 307
Height
10928 10931 10932 10932 10934 10936 10938 10938 10939 10940 10939 10939 10939 10941 10943 10945 10948 10949 10949 10948 10948 10948 10945 10946 10946 10947 10950 10952 10955 10956 10955 10956 10956 10956 10957 10956 10955 10954 10954 10954 10954 10953 10952
10920 10925 10928 10929 10931 10933 10933 10933 10934 10935 10933 10932 10931 10932 10934 10938 10942 10943 10944 10945 10945 10945 10943 10943 10943 10944 10946 10949 10952 10954 10955 10955 10955 10955 10956 10956 10955 10954 10954 10955 10954 10954 10955
10913 10918 10922 10923 10925 10927 10929 10929 10930 10930 10929 10928 10927 10925 10926 10931 10935 10939 10941 10943 10943 10942 10943 10942 10941 10943 10945 10947 10949 10952 10954 10954 10953 10952 10953 10954 10954 10954 10953 10952 10952 10953 10952
10905 10908 10913 10916 10918 10921 10925 10925 10925 10926 10925 10924 10923 10923 10924 10927 10931 10933 10936 10939 10941 10941 10941 10941 10940 10940 10942 10945 10947 10949 10950 10951 10950 10950 10951 10951 10950 10951 10951 10951 10949 10950 10950
10898 10900 10903 10909 10911 10915 10920 10919 10920 10920 10922 10922 10921 10921 10922 10924 10927 10929 10930 10934 10936 10938 10938 10937 10938 10940 10940 10942 10943 10944 10945 10947 10948 10947 10947 10948 10947 10948 10948 10948 10947 10946 10947
10888 10890 10894 10898 10902 10907 10910 10914 10915 10918 10920 10920 10921 10919 10920 10921 10923 10926 10927 10929 10931 10934 10935 10934 10934 10936 10936 10937 10937 10937 10940 10941 10943 10943 10942 10942 10943 10944 10944 10943 10943 10943 10943
10873 10879 10883 10886 10891 10894 10898 10903 10909 10906 10915 10920 10917 10919 10918 10920 10920 10921 10925 10925 10926 10929 10930 10930 10930 10930 10931 10930 10930 10931 10933 10935 10937 10938 10937 10937 10937 10937 10939 10938 10938 10938 10937
10854 10862 10869 10873 10878 10882 10884 10888 10894 10895 10907 10912 10910 10914 10913 10916 10918 10917 10919 10922 10924 10925 10925 10925 10925 10924 10925 10925 10925 10925 10926 10927 10929 10930 10931 10931 10931 10931 10930 10930 10929 10929 10928
10839 10845 10852 10856 10864 10868 10870 10875 10884 10891 10895 10898 10898 10906 10906 10911 10913 10914 10915 10916 10918 10918 10918 10920 10920 10920 10921 10920 10920 10920 10920 10920 10921 10921 10922 10922 10922 10922 10922 10921 10921 10919 10918
10827 10831 10837 10840 10846 10854 10857 10862 10871 10878 10883 10887 10892 10898 10900 10901 10907 10908 10908 10909 10910 10911 10912 10914 10915 10915 10915 10915 10915 10914 10914 10915 10915 10915 10915 10915 10915 10914 10913 10912 10910 10909 10907
10812 10816 10821 10826 10829 10836 10842 10850 10857 10866 10873 10879 10883 10888 10891 10893 10898 10900 10901 10901 10903 10904 10906 10906 10907 10907 10908 10909 10909 10908 10908 10909 10909 10909 10908 10908 10907 10905 10904 10902 10899 10897 10894
10798 10801 10805 10810 10815 10818 10825 10835 10843 10851 10859 10866 10870 10876 10883 10889 10889 10890 10892 10893 10895 10898 10896 10899 10900 10899 10900 10901 10901 10901 10901 10900 10900 10899 10899 10898 10897 10895 10893 10891 10888 10885 10882
10782 10787 10791 10794 10799 10803 10808 10819 10828 10835 10844 10852 10858 10865 10869 10873 10877 10881 10883 10885 10887 10889 10889 10890 10892 10891 10891 10892 10891 10891 10891 10891 10891 10890 10889 10887 10885 10884 10882 10879 10876 10872 10868
10769 10772 10777 10781 10785 10789 10794 10800 10811 10820 10829 10837 10844 10851 10855 10861 10867 10871 10874 10876 10877 10878 10880 10881 10882 10883 10883 10882 10881 10881 10881 10881 10880 10878 10876 10874 10872 10871 10869 10864 10861 10857 10852
10754 10757 10761 10766 10770 10774 10777 10782 10791 10803 10812 10822 10829 10836 10843 10849 10854 10858 10863 10865 10866 10868 10869 10870 10872 10872 10872 10871 10871 10870 10869 10869 10867 10865 10862 10860 10857 10855 10852 10848 10842 10838 10833
10740 10742 10746 10750 10755 10758 10760 10767 10775 10786 10797 10806 10814 10822 10829 10836 10842 10847 10851 10856 10857 10857 10857 10858 10859 10859 10860 10860 10860 10859 10857 10855 10853 10849 10846 10843 10840 10837 10833 10828 10824 10819 10811
10726 10728 10731 10734 10737 10742 10747 10752 10758 10768 10778 10790 10801 10809 10816 10823 10829 10834 10840 10843 10845 10845 10845 10847 10847 10847 10847 10847 10846 10844 10842 10840 10837 10835 10833 10829 10826 10821 10813 10806 10801 10795 10788
10712 10713 10715 10719 10722 10726 10731 10738 10745 10754 10765 10776 10787 10795 10803 10808 10815 10821 10824 10829 10831 10831 10832 10832 10833 10833 10833 10833 10831 10829 10828 10826 10824 10821 10817 10812 10809 10801 10793 10788 10782 10777 10768
10703 10704 10706 10709 10711 10715 10719 10725 10733 10742 10752 10763 10773 10781 10787 10795 10800 10806 10812 10813 10817 10818 10818 10818 10818 10818 10818 10818 10817 10816 10814 10811 10808 10803 10797 10791 10788 10785 10779 10771 10764 10756 10749
10701 10701 10702 10703 10705 10708 10711 10717 10722 10732 10741 10750 10757 10766 10773 10779 10785 10791 10794 10798 10799 10801 10801 10801 10803 10803 10803 10802 10800 10798 10796 10793 10789 10786 10782 10777 10773 10766 10758 10749 10741 10732 10726
10700 10700 10701 10703 10704 10705 10708 10713 10719 10726 10731 10739 10746 10753 10759 10764 10769 10774 10778 10780 10781 10784 10786 10787 10787 10787 10785 10784 10783 10781 10778 10775 10770 10766 10761 10756 10752 10745 10736 10728 10719 10711 10705
10699 10703 10703 10703 10704 10707 10711 10714 10718 10722 10725 10730 10735 10740 10745 10751 10754 10758 10762 10763 10766 10768 10769 10770 10770 10770 10768 10767 10765 10763 10761 10755 10750 10746 10740 10734 10729 10722 10713 10705 10697 10689 10681
10701 10703 10704 10705 10706 10707 10710 10712 10714 10717 10720 10723 10727 10731 10734 10738 10740 10744 10746 10747 10749 10751 10751 10751 10751 10752 10751 10749 10746 10743 10738 10734 10729 10724 10720 10713 10706 10699 10693 10686 10677 10670 10662
10697 10699 10700 10702 10703 10704 10706 10708 10710 10712 10714 10716 10718 10720 10723 10725 10726 10728 10731 10732 10733 10733 10733 10732 10732 10732 10729 10727 10726 10723 10718 10713 10709 10705 10700 10695 10690 10682 10676 10669 10659 10651 10643
10692 10693 10695 10696 10697 10698 10700 10702 10704 10706 10707 10708 10709 10709 10710 10711 10713 10714 10715 10716 10717 10716 10717 10717 10715 10713 10712 10707 10705 10702 10698 10694 10690 10684 10680 10677 10671 10664 10658 10650 10641 10633 10624
10687 10689 10688 10689 10690 10691 10692 10692 10693 10695 10697 10698 10698 10698 10698 10698 10699 10700 10701 10701 10701 10700 10700 10699 10698 10696 10694 10691 10690 10686 10683 10678 10674 10669 10664 10658 10652 10645 10637 10629 10621 10613 10605